CW0352 Weather Reports


Display with metric or nautical units.
time (UTC)temp
F
wind
direction
speed
MPH
gust
MPH
rain 1hr
in
rain 24hr
in
rain mn
in
humidity
%
barometer
mb
20260505101719 43 0 5.0 12.0 0.00 0.00 0.00 89 1013.1
20260505101415 43 0 5.0 13.0 0.00 0.00 0.00 88 1013.1
20260505101257 43 0 5.0 13.0 0.00 0.00 0.00 88 1013.1
20260505100650 43 0 5.0 13.0 0.00 0.00 0.00 88 1013.1
20260505100346 43 0 5.0 13.0 0.00 0.00 0.00 88 1013.1
20260505100230 43 0 5.0 13.0 0.00 0.00 0.00 88 1013.1
20260505095621 43 0 5.0 11.0 0.00 0.00 0.00 88 1013.3
20260505095123 43 0 5.0 13.0 0.00 0.00 0.00 87 1013.3
20260505094618 43 0 5.0 13.0 0.00 0.00 0.00 87 1013.2
20260505094115 43 0 6.0 13.0 0.00 0.00 0.00 86 1013.3
20260505093612 43 0 7.0 13.0 0.00 0.00 0.00 86 1013.2
20260505093049 43 0 7.0 13.0 0.00 0.00 0.00 85 1013.2
20260505092548 43 0 7.0 13.0 0.00 0.00 0.00 85 1013.2
20260505092022 43 0 6.0 14.0 0.00 0.00 0.00 84 1013.4
20260505091521 44 0 6.0 14.0 0.00 0.00 0.00 84 1013.2
20260505091018 44 0 7.0 14.0 0.00 0.00 0.00 84 1013.2
20260505090451 44 0 7.0 13.0 0.00 0.00 0.00 83 1013.3
20260505085927 44 0 6.0 12.0 0.00 0.00 0.00 83 1013.4
20260505085423 44 0 6.0 11.0 0.00 0.00 0.00 82 1013.4
20260505085139 44 0 6.0 12.0 0.00 0.00 0.00 82 1013.3
20260505085025 44 0 6.0 12.0 0.00 0.00 0.00 82 1013.3
20260505084416 44 0 6.0 15.0 0.00 0.00 0.00 82 1013.4
20260505083852 44 0 5.0 11.0 0.00 0.00 0.00 81 1013.5
20260505083606 45 0 5.0 13.0 0.00 0.00 0.00 81 1013.5
20260505083441 45 0 5.0 13.0 0.00 0.00 0.00 81 1013.5
20260505083259 45 0 5.0 13.0 0.00 0.00 0.00 82 1013.5
20260505082912 45 0 5.0 13.0 0.00 0.00 0.00 82 1013.5
20260505082250 45 0 5.0 13.0 0.00 0.00 0.00 83 1013.5
20260505081724 45 0 5.0 12.0 0.00 0.00 0.00 84 1013.4
20260505081224 45 0 6.0 13.0 0.00 0.00 0.00 85 1013.2
20260505080723 45 0 6.0 14.0 0.00 0.00 0.00 85 1013.1
20260505080222 45 0 7.0 14.0 0.00 0.00 0.00 85 1013.0
20260505075705 45 0 7.0 18.0 0.00 0.00 0.00 85 1012.7
20260505075214 45 0 7.0 18.0 0.00 0.00 0.00 85 1012.6
20260505074704 45 0 8.0 16.0 0.00 0.00 0.00 84 1012.6
20260505074204 46 0 8.0 16.0 0.00 0.00 0.00 84 1012.6
20260505073642 46 0 8.0 19.0 0.00 0.00 0.00 83 1012.5
20260505073143 46 0 8.0 19.0 0.00 0.00 0.00 81 1012.6
20260505072637 46 0 8.0 16.0 0.00 0.00 0.00 80 1012.6
20260505072133 46 0 9.0 16.0 0.00 0.00 0.00 79 1012.7
20260505071633 47 0 11.0 22.0 0.00 0.00 0.00 78 1012.7
20260505071116 47 0 12.0 29.0 0.00 0.00 0.00 76 1012.7
20260505070620 47 0 12.0 29.0 0.00 0.00 0.00 74 1012.8
20260505065556 48 0 10.0 19.0 0.00 0.00 0.00 76 1012.6
20260505065057 48 0 9.0 16.0 0.00 0.00 0.00 76 1012.6
20260505064745 49 0 9.0 17.0 0.00 0.00 0.00 75 1012.7
20260505064628 49 0 9.0 17.0 0.00 0.00 0.00 75 1012.7
20260505064014 49 0 9.0 17.0 0.00 0.00 0.00 72 1012.5
20260505063720 50 0 9.0 19.0 0.00 0.00 0.00 70 1012.5
20260505063600 50 0 9.0 19.0 0.00 0.00 0.00 70 1012.5
20260505062955 50 0 8.0 19.0 0.00 0.00 0.00 68 1012.6
20260505062725 51 0 7.0 16.0 0.00 0.00 0.00 66 1012.6
20260505062602 51 0 7.0 16.0 0.00 0.00 0.00 66 1012.6
20260505061954 51 0 8.0 16.0 0.00 0.00 0.00 64 1012.5
20260505061427 52 0 8.0 18.0 0.00 0.00 0.00 61 1012.5
20260505060904 52 0 8.0 18.0 0.00 0.00 0.00 59 1012.2
20260505060351 52 0 8.0 21.0 0.00 0.00 0.00 58 1011.7
20260505060035 53 0 9.0 21.0 0.00 0.00 0.00 57 1011.4
20260505055921 53 0 9.0 21.0 0.00 0.00 0.00 57 1011.4
20260505055255 53 0 9.0 19.0 0.00 0.00 0.00 56 1011.3
20260505054753 53 0 11.0 23.0 0.00 0.00 0.00 55 1011.0
20260505054241 53 0 11.0 24.0 0.00 0.00 0.00 55 1010.8
20260505053742 53 0 12.0 26.0 0.00 0.00 0.00 54 1010.4
20260505053458 54 0 12.0 24.0 0.00 0.00 0.00 54 1010.5
20260505053341 54 0 12.0 24.0 0.00 0.00 0.00 54 1010.5
20260505052729 54 0 11.0 24.0 0.00 0.00 0.00 54 1010.5
20260505052228 54 0 10.0 24.0 0.00 0.00 0.00 53 1010.5
20260505051742 54 0 10.0 21.0 0.00 0.00 0.00 53 1010.8
20260505051225 55 0 9.0 20.0 0.00 0.00 0.00 52 1010.6
20260505050658 55 0 9.0 20.0 0.00 0.00 0.00 52 1010.9
20260505050156 55 0 9.0 19.0 0.00 0.00 0.00 51 1010.8
20260505041418 58 0 12.0 23.0 0.00 0.00 0.00 46 1010.1
20260505040916 58 0 10.0 23.0 0.00 0.00 0.00 45 1010.1
20260505040417 58 0 7.0 18.0 0.00 0.00 0.00 44 1010.0
20260505035850 59 0 7.0 17.0 0.00 0.00 0.00 44 1010.0
20260505035348 59 0 8.0 17.0 0.00 0.00 0.00 43 1010.0
20260505034846 59 0 9.0 20.0 0.00 0.00 0.00 43 1009.9
20260505034319 60 0 11.0 20.0 0.00 0.00 0.00 43 1009.7
20260505033813 60 0 10.0 21.0 0.00 0.00 0.00 42 1009.5
20260505033530 60 0 10.0 24.0 0.00 0.00 0.00 42 1009.7
20260505033413 60 0 10.0 24.0 0.00 0.00 0.00 42 1009.7
20260505032809 60 0 11.0 24.0 0.00 0.00 0.00 41 1009.8
20260505032312 60 0 10.0 33.0 0.00 0.00 0.00 41 1009.7
20260505031744 61 0 10.0 33.0 0.00 0.00 0.00 41 1009.5
20260505031240 61 0 11.0 25.0 0.00 0.00 0.00 41 1009.5
20260505030720 61 0 12.0 25.0 0.00 0.00 0.00 40 1009.5
20260505030211 61 0 12.0 22.0 0.00 0.00 0.00 40 1009.3
20260505025651 61 0 11.0 24.0 0.00 0.00 0.00 39 1009.2
20260505025157 62 0 9.0 24.0 0.00 0.00 0.00 39 1009.1
20260505024642 62 0 9.0 22.0 0.00 0.00 0.00 39 1008.9
20260505024138 62 0 11.0 22.0 0.00 0.00 0.00 38 1008.8
20260505023635 62 0 11.0 21.0 0.00 0.00 0.00 38 1008.7
20260505023131 63 0 10.0 21.0 0.00 0.00 0.00 38 1008.6
20260505022626 63 0 11.0 25.0 0.00 0.00 0.00 37 1008.5
20260505022107 63 0 11.0 25.0 0.00 0.00 0.00 37 1008.2
20260505021556 63 0 11.0 22.0 0.00 0.00 0.00 37 1008.2
20260505021031 64 0 11.0 22.0 0.00 0.00 0.00 37 1008.1
20260505020528 64 0 11.0 21.0 0.00 0.00 0.00 38 1007.7
20260505020000 64 0 12.0 24.0 0.00 0.00 0.00 37 1007.8
20260505015741 65 0 11.0 24.0 0.00 0.00 0.00 37 1007.6
20260505015138 65 0 12.0 25.0 0.00 0.00 0.00 37 1007.5
20260505015018 65 0 12.0 25.0 0.00 0.00 0.00 37 1007.5
20260505014403 65 0 12.0 25.0 0.00 0.00 0.00 37 1007.4
20260505013333 66 0 11.0 26.0 0.00 0.00 0.00 37 1007.2
20260505012830 67 0 12.0 26.0 0.00 0.00 0.00 37 1006.9
20260505012327 67 0 13.0 27.0 0.00 0.00 0.00 36 1006.9
20260505011824 67 0 14.0 27.0 0.00 0.00 0.00 36 1006.8
20260505011315 68 0 12.0 26.0 0.00 0.00 0.00 36 1006.5
20260505010814 68 0 11.0 26.0 0.00 0.00 0.00 37 1006.6
20260505010546 68 0 11.0 26.0 0.00 0.00 0.00 37 1006.5
20260505010415 68 0 11.0 26.0 0.00 0.00 0.00 37 1006.5
20260505005808 69 0 12.0 26.0 0.00 0.00 0.00 36 1006.6
20260505005304 69 0 12.0 26.0 0.00 0.00 0.00 36 1006.4
20260505004740 69 0 13.0 26.0 0.00 0.00 0.00 35 1006.4
20260505004235 70 0 11.0 24.0 0.00 0.00 0.00 35 1006.5
20260505003731 70 0 10.0 22.0 0.00 0.00 0.00 34 1006.4
20260505003227 71 0 10.0 20.0 0.00 0.00 0.00 34 1006.4
20260505002658 71 0 10.0 24.0 0.00 0.00 0.00 33 1006.7
20260505002128 72 0 8.0 24.0 0.00 0.00 0.00 32 1006.6
20260505001602 72 0 9.0 25.0 0.00 0.00 0.00 31 1006.6
20260505001036 73 0 12.0 25.0 0.00 0.00 0.00 30 1006.0
20260505000542 73 0 12.0 26.0 0.00 0.00 0.00 30 1005.8
20260505000014 74 0 10.0 26.0 0.00 0.00 0.00 29 1005.7
20260504235446 75 0 8.0 23.0 0.00 0.00 0.00 28 1005.5
20260504234919 77 0 4.0 18.0 0.00 0.00 0.00 23 1005.5
20260504234405 78 0 3.0 9.0 0.00 0.00 0.00 20 1005.0
20260504233906 78 0 4.0 9.0 0.00 0.00 0.00 20 1004.7
20260504233356 79 0 3.0 8.0 0.00 0.00 0.00 19 1004.7
20260504232835 79 0 2.0 6.0 0.00 0.00 0.00 19 1004.7
20260504232334 79 0 1.0 3.0 0.00 0.00 0.00 19 1004.6
20260504232035 80 0 2.0 4.0 0.00 0.00 0.00 19 1004.6
20260504231916 80 0 2.0 4.0 0.00 0.00 0.00 19 1004.6
20260504231246 80 0 1.0 4.0 0.00 0.00 0.00 18 1004.6
20260504230744 80 0 1.0 4.0 0.00 0.00 0.00 19 1004.5
20260504230534 80 0 2.0 6.0 0.00 0.00 0.00 19 1004.4
20260504230241 80 0 2.0 6.0 0.00 0.00 0.00 19 1004.4
20260504230222 80 0 2.0 6.0 0.00 0.00 0.00 19 1004.4
20260504225251 80 0 1.0 5.0 0.00 0.00 0.00 18 1004.4
20260504224730 80 0 1.0 8.0 0.00 0.00 0.00 18 1004.5
20260504224225 80 0 2.0 8.0 0.00 0.00 0.00 18 1004.5
20260504223725 79 0 3.0 8.0 0.00 0.00 0.00 19 1004.7
20260504223222 79 0 4.0 8.0 0.00 0.00 0.00 18 1004.7
20260504222719 79 0 4.0 13.0 0.00 0.00 0.00 19 1004.8
20260504222202 79 0 5.0 13.0 0.00 0.00 0.00 19 1005.0
20260504221700 79 0 5.0 12.0 0.00 0.00 0.00 19 1005.0
20260504221202 79 0 5.0 10.0 0.00 0.00 0.00 19 1004.8
20260504220956 79 0 4.0 10.0 0.00 0.00 0.00 19 1005.0
20260504220657 79 0 4.0 10.0 0.00 0.00 0.00 19 1004.9
20260504220625 79 0 4.0 10.0 0.00 0.00 0.00 19 1005.0
20260504215634 79 0 4.0 10.0 0.00 0.00 0.00 19 1005.2
20260504215108 79 0 4.0 10.0 0.00 0.00 0.00 18 1005.2
20260504214610 80 0 5.0 11.0 0.00 0.00 0.00 18 1005.2
20260504214102 80 0 5.0 12.0 0.00 0.00 0.00 19 1005.2
20260504213602 80 0 4.0 9.0 0.00 0.00 0.00 19 1005.2
20260504213041 81 0 5.0 14.0 0.00 0.00 0.00 18 1005.2
20260504212524 82 0 5.0 14.0 0.00 0.00 0.00 18 1004.9
20260504212001 83 0 3.0 14.0 0.00 0.00 0.00 17 1004.9
20260504211721 85 0 3.0 11.0 0.00 0.00 0.00 16 1005.0
20260504211600 85 0 3.0 11.0 0.00 0.00 0.00 16 1005.0
20260504210948 85 0 2.0 11.0 0.00 0.00 0.00 15 1005.2
20260504210447 86 0 1.0 5.0 0.00 0.00 0.00 14 1005.2
20260504210245 87 0 1.0 3.0 0.00 0.00 0.00 13 1005.2
20260504205413 87 0 1.0 2.0 0.00 0.00 0.00 13 1005.2
20260504204911 87 0 1.0 4.0 0.00 0.00 0.00 13 1005.2
20260504204628 87 0 1.0 4.0 0.00 0.00 0.00 15 1005.3
20260504204512 87 0 1.0 4.0 0.00 0.00 0.00 15 1005.3
20260504204108 88 0 3.0 10.0 0.00 0.00 0.00 13 1005.3
20260504203952 88 0 3.0 10.0 0.00 0.00 0.00 13 1005.3
20260504203349 88 0 3.0 10.0 0.00 0.00 0.00 13 1005.3
20260504202846 88 292 2.0 6.0 0.00 0.00 0.00 15 1005.3
20260504202710 87 335 2.0 11.0 0.00 0.00 0.00 14 1005.4
20260504202639 87 335 2.0 11.0 0.00 0.00 0.00 14 1005.4
20260504201847 88 0 2.0 11.0 0.00 0.00 0.00 14 1005.4
20260504201320 88 304 1.0 5.0 0.00 0.00 0.00 14 1005.5
20260504200821 87 248 1.0 5.0 0.00 0.00 0.00 15 1005.6
20260504200319 86 155 2.0 4.0 0.00 0.00 0.00 15 1005.7
20260504195817 86 144 3.0 10.0 0.00 0.00 0.00 16 1005.8
20260504195728 85 0 4.0 10.0 0.00 0.00 0.00 16 1005.8
20260504195354 85 0 4.0 10.0 0.00 0.00 0.00 16 1005.8
20260504194726 85 0 4.0 11.0 0.00 0.00 0.00 17 1005.9
20260504194605 85 0 4.0 11.0 0.00 0.00 0.00 17 1006.0
20260504194518 85 0 4.0 11.0 0.00 0.00 0.00 17 1006.0
20260504193715 85 0 3.0 9.0 0.00 0.00 0.00 17 1006.1
20260504193149 86 0 4.0 16.0 0.00 0.00 0.00 16 1006.1
20260504192646 86 0 3.0 16.0 0.00 0.00 0.00 17 1006.3
20260504192143 87 0 2.0 5.0 0.00 0.00 0.00 16 1006.4
20260504191636 88 0 2.0 6.0 0.00 0.00 0.00 14 1006.4
20260504191133 89 57 2.0 6.0 0.00 0.00 0.00 15 1006.5
20260504190849 88 33 2.0 5.0 0.00 0.00 0.00 15 1006.6
20260504190734 88 33 2.0 5.0 0.00 0.00 0.00 15 1006.6
20260504190126 87 35 2.0 5.0 0.00 0.00 0.00 16 1006.7
20260504185616 87 344 1.0 4.0 0.00 0.00 0.00 17 1006.6
20260504185049 85 337 2.0 6.0 0.00 0.00 0.00 17 1006.6
20260504184547 84 35 3.0 6.0 0.00 0.00 0.00 17 1006.7
20260504184043 83 0 3.0 8.0 0.00 0.00 0.00 18 1006.7
20260504183540 83 46 3.0 8.0 0.00 0.00 0.00 17 1006.9
20260504183241 82 104 2.0 8.0 0.00 0.00 0.00 18 1006.9
20260504183123 82 104 2.0 8.0 0.00 0.00 0.00 18 1006.9
20260504182446 82 101 3.0 6.0 0.00 0.00 0.00 19 1007.0
20260504181920 80 0 4.0 8.0 0.00 0.00 0.00 19 1007.1
20260504181636 80 0 4.0 9.0 0.00 0.00 0.00 20 1007.1
20260504181512 80 0 4.0 9.0 0.00 0.00 0.00 20 1007.1
20260504180906 80 0 4.0 9.0 0.00 0.00 0.00 21 1007.2
20260504180402 79 0 3.0 8.0 0.00 0.00 0.00 21 1007.5
20260504175834 79 0 2.0 10.0 0.00 0.00 0.00 21 1007.5
20260504175307 78 0 4.0 10.0 0.00 0.00 0.00 21 1007.6
20260504174743 78 0 5.0 12.0 0.00 0.00 0.00 20 1007.6
20260504174451 78 0 5.0 12.0 0.00 0.00 0.00 21 1007.6
20260504174321 78 0 5.0 12.0 0.00 0.00 0.00 21 1007.6
20260504173709 78 0 5.0 11.0 0.00 0.00 0.00 21 1007.7
20260504173144 79 0 5.0 11.0 0.00 0.00 0.00 21 1007.8
20260504172642 79 0 4.0 10.0 0.00 0.00 0.00 22 1007.7
20260504172136 79 0 4.0 11.0 0.00 0.00 0.00 21 1007.8
20260504171633 78 0 5.0 11.0 0.00 0.00 0.00 21 1007.9
20260504171106 78 0 4.0 10.0 0.00 0.00 0.00 21 1007.9
20260504170607 78 0 4.0 11.0 0.00 0.00 0.00 23 1007.9
20260504160302 76 0 3.0 8.0 0.00 0.00 0.00 25 1007.8
20260504151058 70 0 5.0 12.0 0.00 0.00 0.00 29 1008.3
20260504150619 69 0 4.0 13.0 0.00 0.00 0.00 30 1008.3
20260504150607 70 0 6.0 13.0 0.00 0.00 0.00 30 1008.3
20260504150214 69 0 4.0 13.0 0.00 0.00 0.00 30 1008.3
20260504141328 61 0 4.0 8.0 0.00 0.00 0.00 47 1008.7
20260504140805 60 0 3.0 8.0 0.00 0.00 0.00 49 1008.8
20260504140303 58 0 3.0 6.0 0.00 0.00 0.00 50 1008.7
20260504130502 46 0 3.0 6.0 0.00 0.00 0.00 72 1008.9
20260504110417 41 0 2.0 5.0 0.00 0.00 0.00 71 1007.8